Home > Weather > Netherlands > Eindhoven > Past weeks

Flag for Netherlands Weather past 2 weeks in Eindhoven, Netherlands

52 °F

Mostly cloudy.

Feels Like: 49 °F
Forecast: 46 / 51 °F
Wind: 9 mph from Southwest

Location: Eindhoven Airport

Current Time: Dec 2, 2015 at 7:00:52 AM

Latest Report: Dec 2, 2015 at 5:55 AM

Visibility: N/A

Pressure: 30.30 "Hg

Humidity: 77%

Dew point: 45 °F

Location of EindhovenLocation

Historic Weather in Eindhoven — Graph


Eindhoven temperature yesterday

Maximum temperature yesterday: 55 °F (at 3:25 PM)
Minimum temperature yesterday: 46 °F (at 5:02 AM)
Average temperature yesterday: 51 °F

Past Weeks' High & Low Weather Summary

High61 °F (Nov 17, 8:25 PM)100% (Nov 17, 5:55 AM)30.30 "Hg (Nov 17, 5:55 AM)
Low28 °F (Nov 23, 8:55 AM)62% (Nov 26, 2:25 PM)29.36 "Hg (Nov 21, 10:57 AM)
Average45 °F87%29.87 "Hg
* Reported Nov 17 5:03 AM — Dec 2 4:25 AM, Eindhoven, Weather by CustomWeather, © 2015

Note: Actual official high and low records may vary slightly from our data, if they occured in-between our weather recording intervals... More about our weather records


Eindhoven weather history for previous 24 hours

Time TempWeatherWind HumidityBarometerVisibility
4:25 AM
Wed, Dec 2
52 °FMostly cloudy.12 mph82%30.30 "HgN/A
3:55 AM52 °FOvercast.12 mph88%30.30 "HgN/A
3:25 AM52 °FMostly cloudy.10 mph88%30.30 "HgN/A
2:55 AM52 °FOvercast.9 mph88%30.30 "HgN/A
2:25 AM52 °FOvercast.9 mph88%30.30 "HgN/A
1:55 AM52 °FOvercast.10 mph88%30.30 "HgN/A
1:25 AM54 °FOvercast.15 mph77%30.30 "HgN/A
12:55 AM52 °FOvercast.12 mph82%30.27 "HgN/A
12:25 AM54 °FOvercast.13 mph77%30.27 "HgN/A
11:55 PM
Tue, Dec 1
54 °FOvercast.14 mph82%30.27 "HgN/A
10:55 PM54 °FOvercast.13 mph82%30.27 "HgN/A
10:25 PM54 °FOvercast.14 mph82%30.27 "HgN/A
9:55 PM54 °FOvercast.14 mph82%30.27 "HgN/A
9:25 PM54 °FOvercast.14 mph82%30.27 "HgN/A
8:55 PM54 °FOvercast.14 mph88%30.27 "HgN/A
8:25 PM54 °FMostly cloudy.14 mph88%30.27 "HgN/A
8:03 PM54 °FMostly cloudy.13 mph88%30.27 "HgN/A
7:55 PM54 °FMostly cloudy.12 mph88%30.27 "HgN/A
7:25 PM54 °FMostly cloudy.9 mph88%30.27 "HgN/A
6:59 PM54 °FMostly cloudy.13 mph88%30.27 "HgN/A
6:56 PM54 °FMostly cloudy.13 mph88%30.27 "HgN/A
6:55 PM54 °FOvercast.13 mph88%30.24 "HgN/A
6:25 PM54 °FOvercast.8 mph94%30.24 "HgN/A
5:55 PM54 °FPartly cloudy.14 mph94%30.24 "HgN/A
5:25 PM54 °FMostly cloudy.13 mph94%30.24 "HgN/A
5:00 PM54 °FOvercast.10 mph94%30.24 "HgN/A
4:55 PM54 °FPartly cloudy.10 mph94%30.24 "HgN/A
4:25 PM54 °FFog.9 mph100%30.21 "Hg6 mi
3:56 PM55 °FFog.12 mph94%30.21 "Hg2 mi
3:25 PM55 °FBroken clouds.12 mph94%30.21 "HgN/A
3:00 PM54 °FDrizzle. Partly sunny.12 mph100%30.21 "Hg5 mi
2:55 PM54 °FDrizzle. Mostly cloudy.12 mph100%30.21 "Hg4 mi
2:25 PM54 °FDrizzle. Mostly cloudy.9 mph94%30.21 "Hg4 mi
1:59 PM52 °FDrizzle. Mostly cloudy.8 mph100%30.21 "Hg2 mi
1:55 PM52 °FLight rain. More clouds than sun.7 mph94%30.21 "Hg2 mi
1:25 PM50 °FDrizzle. Mostly cloudy.3 mph100%30.21 "Hg1 mi
12:55 PM50 °FLight rain. Cloudy.3 mph94%30.21 "Hg1 mi
12:25 PM48 °FDrizzle. Broken clouds.5 mph100%30.21 "Hg1 mi
11:55 AM48 °FDrizzle. Cloudy.6 mph100%30.21 "Hg1 mi
11:25 AM48 °FDrizzle. Cloudy.6 mph100%30.21 "Hg2 mi
11:00 AM48 °FDrizzle. More clouds than sun.5 mph94%30.21 "Hg2 mi
10:25 AM46 °FDrizzle. Mostly cloudy.3 mph100%30.21 "Hg2 mi
9:55 AM46 °FDrizzle. Partly sunny.2 mph100%30.21 "Hg1 mi
9:03 AM46 °FLight rain. Broken clouds.3 mph100%30.18 "Hg2 mi
7:55 AM46 °FLight rain. Partly cloudy.7 mph100%30.18 "Hg3 mi
7:25 AM46 °FPartly cloudy.7 mph100%30.15 "Hg3 mi
Weather by CustomWeather, © 2015

See weather overviewHow to use our weather pages